Back to Top

Language: 

My Weather Underground Personal Weather Station Historical Data with Graphs...

Delerius Weather Station Historical Data
Daily Summary for April 14, 2017 Units:  English    Metric   Both
« Previous Day
Next Day »
Daily Weekly Monthly Yearly Custom
  High: Low: Average:
Temperature: 57.4 °F 45.1 °F 49.9 °F
Dew Point: 49.3 °F 39.7 °F 44.3 °F
Humidity: 90 % 66 % 81 %
Wind Speed: 18.0 mph 0.0 mph 7.7 mph
Wind Gust: 31.0 mph - -
Wind:- - West
Pressure: 30.01 in 29.86 in -
Precipitation: 0.01 in    
Historical Graphs
 
 
Tabular Data for April 14, 2017
Time Temperature Dew Point Pressure Wind Wind Speed Wind Gust Humidity Rainfall Rate (Hourly) solar Conditions
00:02 46.8 °F 40.6 °F 30.01 in West 6.0 mph 11.0 mph 79 % 0.00 in 0 W/m2
00:07 46.8 °F 40.6 °F 30.01 in West 6.0 mph 9.0 mph 79 % 0.00 in 0 W/m2
00:12 46.8 °F 40.6 °F 30.01 in West 6.0 mph 9.0 mph 79 % 0.00 in 0 W/m2
00:17 46.8 °F 40.6 °F 30.01 in West 6.0 mph 11.0 mph 79 % 0.00 in 0 W/m2
00:22 46.8 °F 40.6 °F 30.01 in West 6.0 mph 11.0 mph 79 % 0.00 in 0 W/m2
00:27 46.8 °F 40.6 °F 30.01 in West 4.0 mph 9.0 mph 79 % 0.00 in 0 W/m2
00:32 46.8 °F 40.6 °F 30.01 in West 3.0 mph 9.0 mph 79 % 0.00 in 0 W/m2
00:37 46.8 °F 40.9 °F 30.01 in West 3.0 mph 7.0 mph 80 % 0.00 in 0 W/m2
00:42 46.8 °F 40.9 °F 30.01 in WNW 3.0 mph 8.0 mph 80 % 0.00 in 0 W/m2
00:47 46.8 °F 40.6 °F 30.01 in WNW 4.0 mph 8.0 mph 79 % 0.00 in 0 W/m2
00:52 46.8 °F 40.9 °F 30.01 in West 3.0 mph 7.0 mph 80 % 0.00 in 0 W/m2
00:57 46.8 °F 40.9 °F 30.01 in WNW 2.0 mph 6.0 mph 80 % 0.00 in 0 W/m2
01:02 46.8 °F 40.6 °F 30.00 in West 2.0 mph 7.0 mph 79 % 0.00 in 0 W/m2
01:07 46.8 °F 40.6 °F 30.00 in West 3.0 mph 8.0 mph 79 % 0.00 in 0 W/m2
01:12 46.8 °F 40.6 °F 30.00 in West 3.0 mph 8.0 mph 79 % 0.00 in 0 W/m2
01:17 46.8 °F 40.9 °F 30.00 in West 2.0 mph 6.0 mph 80 % 0.00 in 0 W/m2
01:22 46.8 °F 40.9 °F 30.00 in West 2.0 mph 9.0 mph 80 % 0.00 in 0 W/m2
01:27 46.8 °F 40.6 °F 29.99 in West 3.0 mph 9.0 mph 79 % 0.00 in 0 W/m2
01:32 46.8 °F 40.6 °F 29.99 in West 3.0 mph 8.0 mph 79 % 0.00 in 0 W/m2
01:37 46.8 °F 40.9 °F 29.99 in West 3.0 mph 7.0 mph 80 % 0.00 in 0 W/m2
01:43 46.6 °F 40.7 °F 29.99 in West 3.0 mph 6.0 mph 80 % 0.00 in 0 W/m2
01:48 46.6 °F 40.7 °F 29.99 in West 3.0 mph 6.0 mph 80 % 0.00 in 0 W/m2
01:53 46.6 °F 40.7 °F 29.99 in West 3.0 mph 6.0 mph 80 % 0.00 in 0 W/m2
01:58 46.6 °F 40.7 °F 29.99 in West 3.0 mph 6.0 mph 80 % 0.00 in 0 W/m2
02:03 46.6 °F 40.7 °F 29.99 in West 2.0 mph 6.0 mph 80 % 0.00 in 0 W/m2
02:08 46.4 °F 40.6 °F 29.98 in West 3.0 mph 6.0 mph 80 % 0.00 in 0 W/m2
02:13 46.2 °F 40.4 °F 29.98 in West 3.0 mph 6.0 mph 80 % 0.00 in 0 W/m2
02:18 46.2 °F 40.1 °F 29.98 in West 4.0 mph 8.0 mph 79 % 0.00 in 0 W/m2
02:23 46.0 °F 39.9 °F 29.98 in West 4.0 mph 8.0 mph 79 % 0.00 in 0 W/m2
02:28 46.0 °F 39.9 °F 29.98 in West 3.0 mph 7.0 mph 79 % 0.00 in 0 W/m2
02:33 46.0 °F 40.2 °F 29.98 in West 2.0 mph 7.0 mph 80 % 0.00 in 0 W/m2
02:38 45.9 °F 40.0 °F 29.97 in WNW 1.0 mph 7.0 mph 80 % 0.00 in 0 W/m2
02:43 45.9 °F 40.0 °F 29.97 in NW 1.0 mph 5.0 mph 80 % 0.00 in 0 W/m2
02:48 45.9 °F 40.0 °F 29.97 in WNW 2.0 mph 7.0 mph 80 % 0.00 in 0 W/m2
02:53 45.9 °F 40.0 °F 29.97 in West 2.0 mph 8.0 mph 80 % 0.00 in 0 W/m2
02:58 45.9 °F 40.0 °F 29.97 in West 1.0 mph 8.0 mph 80 % 0.00 in 0 W/m2
03:03 45.9 °F 40.0 °F 29.97 in WNW 2.0 mph 6.0 mph 80 % 0.00 in 0 W/m2
03:08 46.0 °F 40.2 °F 29.97 in WNW 4.0 mph 7.0 mph 80 % 0.00 in 0 W/m2
03:13 46.0 °F 40.2 °F 29.97 in West 5.0 mph 10.0 mph 80 % 0.00 in 0 W/m2
03:18 46.0 °F 40.2 °F 29.97 in West 6.0 mph 13.0 mph 80 % 0.00 in 0 W/m2
03:23 46.0 °F 40.2 °F 29.97 in West 7.0 mph 13.0 mph 80 % 0.00 in 0 W/m2
03:25 46.0 °F 40.2 °F 29.97 in WNW 7.0 mph 13.0 mph 80 % 0.00 in 0 W/m2
03:30 45.9 °F 40.0 °F 29.97 in WNW 8.0 mph 14.0 mph 80 % 0.00 in 0 W/m2
03:35 45.9 °F 40.0 °F 29.97 in WNW 8.0 mph 14.0 mph 80 % 0.00 in 0 W/m2
03:40 45.7 °F 39.9 °F 29.97 in WNW 8.0 mph 14.0 mph 80 % 0.00 in 0 W/m2
03:46 45.7 °F 39.9 °F 29.97 in WNW 7.0 mph 14.0 mph 80 % 0.00 in 0 W/m2
03:51 45.5 °F 40.0 °F 29.97 in WNW 6.0 mph 11.0 mph 81 % 0.00 in 0 W/m2
03:56 45.3 °F 39.8 °F 29.97 in WNW 6.0 mph 10.0 mph 81 % 0.00 in 0 W/m2
03:58 45.3 °F 39.8 °F 29.97 in WNW 6.0 mph 10.0 mph 81 % 0.00 in 0 W/m2
04:03 45.3 °F 39.8 °F 29.97 in West 4.0 mph 10.0 mph 81 % 0.00 in 0 W/m2
04:08 45.3 °F 39.8 °F 29.97 in West 2.0 mph 5.0 mph 81 % 0.00 in 0 W/m2
04:13 45.1 °F 39.7 °F 29.97 in WNW 1.0 mph 5.0 mph 81 % 0.00 in 0 W/m2
04:18 45.1 °F 40.0 °F 29.97 in WNW 1.0 mph 5.0 mph 82 % 0.00 in 0 W/m2
04:23 45.1 °F 40.0 °F 29.97 in WNW 1.0 mph 5.0 mph 82 % 0.00 in 0 W/m2
04:28 45.1 °F 40.0 °F 29.97 in West 2.0 mph 5.0 mph 82 % 0.00 in 0 W/m2
04:33 45.1 °F 40.0 °F 29.97 in West 1.0 mph 5.0 mph 82 % 0.00 in 0 W/m2
04:38 45.1 °F 40.0 °F 29.97 in Calm   2.0 mph 82 % 0.00 in 0 W/m2
04:43 45.1 °F 40.0 °F 29.96 in Calm   1.0 mph 82 % 0.00 in 0 W/m2
04:48 45.1 °F 40.0 °F 29.96 in Calm   2.0 mph 82 % 0.00 in 0 W/m2
04:53 45.1 °F 40.3 °F 29.96 in West 1.0 mph 5.0 mph 83 % 0.00 in 0 W/m2
04:58 45.3 °F 40.5 °F 29.96 in West 2.0 mph 6.0 mph 83 % 0.00 in 0 W/m2
05:03 45.3 °F 40.5 °F 29.96 in WNW 2.0 mph 6.0 mph 83 % 0.00 in 0 W/m2
05:08 45.3 °F 40.5 °F 29.96 in West 1.0 mph 5.0 mph 83 % 0.00 in 0 W/m2
05:13 45.5 °F 40.6 °F 29.96 in West 2.0 mph 5.0 mph 83 % 0.00 in 0 W/m2
05:18 45.5 °F 40.6 °F 29.96 in West 1.0 mph 5.0 mph 83 % 0.00 in 0 W/m2
05:23 45.5 °F 40.6 °F 29.96 in West 1.0 mph 4.0 mph 83 % 0.00 in 0 W/m2
05:28 45.5 °F 40.6 °F 29.96 in West 1.0 mph 7.0 mph 83 % 0.00 in 0 W/m2
05:33 45.5 °F 40.6 °F 29.96 in WNW 3.0 mph 7.0 mph 83 % 0.00 in 0 W/m2
05:38 45.7 °F 40.8 °F 29.95 in WNW 4.0 mph 7.0 mph 83 % 0.00 in 0 W/m2
05:43 45.7 °F 40.8 °F 29.95 in WNW 3.0 mph 7.0 mph 83 % 0.00 in 0 W/m2
05:44 45.7 °F 40.8 °F 29.95 in WNW 3.0 mph 7.0 mph 83 % 0.00 in 0 W/m2
05:49 45.7 °F 40.8 °F 29.95 in WNW 3.0 mph 7.0 mph 83 % 0.00 in 0 W/m2
05:54 45.5 °F 40.6 °F 29.95 in WNW 3.0 mph 7.0 mph 83 % 0.00 in 0 W/m2
05:59 45.3 °F 40.5 °F 29.95 in WNW 3.0 mph 7.0 mph 83 % 0.00 in 0 W/m2
06:04 45.3 °F 40.8 °F 29.95 in WNW 3.0 mph 7.0 mph 84 % 0.00 in 0 W/m2
06:09 45.1 °F 40.6 °F 29.95 in WNW 4.0 mph 7.0 mph 84 % 0.00 in 7 W/m2
06:14 45.1 °F 40.6 °F 29.95 in NW 4.0 mph 7.0 mph 84 % 0.00 in 7 W/m2
06:19 45.1 °F 40.9 °F 29.96 in NW 2.0 mph 6.0 mph 85 % 0.00 in 9 W/m2
06:24 45.1 °F 40.9 °F 29.96 in NW 1.0 mph 6.0 mph 85 % 0.00 in 12 W/m2
06:29 45.3 °F 41.1 °F 29.96 in Calm   4.0 mph 85 % 0.00 in 12 W/m2
06:34 45.3 °F 41.1 °F 29.96 in Calm     85 % 0.00 in 9 W/m2
06:39 45.3 °F 41.1 °F 29.96 in Calm     85 % 0.00 in 11 W/m2
06:44 45.5 °F 41.3 °F 29.96 in Calm     85 % 0.00 in 5 W/m2
06:49 45.5 °F 41.3 °F 29.96 in Calm     85 % 0.00 in 5 W/m2
06:54 45.7 °F 41.4 °F 29.96 in Calm     85 % 0.00 in 7 W/m2
06:59 45.7 °F 41.4 °F 29.96 in Calm   1.0 mph 85 % 0.00 in 5 W/m2
07:04 45.9 °F 41.3 °F 29.96 in Calm   1.0 mph 84 % 0.00 in 11 W/m2
07:09 45.9 °F 41.3 °F 29.96 in Calm   1.0 mph 84 % 0.00 in 16 W/m2
07:14 46.0 °F 41.8 °F 29.96 in Calm     85 % 0.00 in 16 W/m2
07:19 46.2 °F 42.0 °F 29.96 in Calm   2.0 mph 85 % 0.00 in 21 W/m2
07:24 46.4 °F 42.1 °F 29.96 in WNW 1.0 mph 7.0 mph 85 % 0.00 in 25 W/m2
07:29 46.6 °F 42.3 °F 29.96 in SW 4.0 mph 9.0 mph 85 % 0.00 in 21 W/m2
07:34 46.8 °F 42.5 °F 29.95 in SSW 5.0 mph 9.0 mph 85 % 0.00 in 30 W/m2
07:39 46.8 °F 42.5 °F 29.95 in SW 5.0 mph 9.0 mph 85 % 0.00 in 35 W/m2
07:44 46.9 °F 42.7 °F 29.95 in SW 6.0 mph 11.0 mph 85 % 0.00 in 39 W/m2
07:49 46.9 °F 42.4 °F 29.95 in SW 7.0 mph 11.0 mph 84 % 0.00 in 23 W/m2
07:54 46.9 °F 42.4 °F 29.95 in WSW 6.0 mph 9.0 mph 84 % 0.00 in 54 W/m2
07:59 47.1 °F 42.8 °F 29.96 in WSW 5.0 mph 8.0 mph 85 % 0.00 in 77 W/m2
08:04 47.1 °F 42.5 °F 29.95 in SW 5.0 mph 9.0 mph 84 % 0.00 in 70 W/m2
08:09 47.3 °F 42.7 °F 29.95 in SW 6.0 mph 9.0 mph 84 % 0.00 in 58 W/m2
08:14 47.5 °F 42.9 °F 29.95 in SW 5.0 mph 9.0 mph 84 % 0.00 in 107 W/m2
08:20 47.7 °F 43.1 °F 29.95 in SW 6.0 mph 9.0 mph 84 % 0.00 in 69 W/m2
08:25 47.7 °F 43.1 °F 29.95 in SW 5.0 mph 8.0 mph 84 % 0.00 in 53 W/m2
08:30 47.8 °F 43.2 °F 29.95 in SW 6.0 mph 9.0 mph 84 % 0.00 in 46 W/m2
08:35 47.8 °F 43.2 °F 29.95 in SW 7.0 mph 11.0 mph 84 % 0.00 in 62 W/m2
08:40 48.0 °F 43.4 °F 29.95 in SW 7.0 mph 11.0 mph 84 % 0.00 in 83 W/m2
08:45 48.0 °F 43.4 °F 29.95 in SW 7.0 mph 11.0 mph 84 % 0.00 in 74 W/m2
08:50 48.0 °F 43.4 °F 29.95 in SW 7.0 mph 11.0 mph 84 % 0.00 in 105 W/m2
08:55 48.4 °F 43.8 °F 29.94 in SW 6.0 mph 10.0 mph 84 % 0.00 in 97 W/m2
09:00 48.4 °F 43.8 °F 29.94 in SW 7.0 mph 11.0 mph 84 % 0.00 in 121 W/m2
09:05 48.6 °F 43.9 °F 29.94 in SW 7.0 mph 11.0 mph 84 % 0.00 in 93 W/m2
09:10 48.7 °F 44.1 °F 29.94 in SW 7.0 mph 11.0 mph 84 % 0.00 in 127 W/m2
09:15 48.7 °F 44.4 °F 29.94 in SW 7.0 mph 11.0 mph 85 % 0.00 in 135 W/m2
09:20 48.9 °F 44.9 °F 29.94 in SW 7.0 mph 11.0 mph 86 % 0.00 in 125 W/m2
09:25 48.9 °F 44.9 °F 29.94 in SW 6.0 mph 10.0 mph 86 % 0.00 in 155 W/m2
09:30 49.1 °F 44.8 °F 29.94 in SW 6.0 mph 11.0 mph 85 % 0.00 in 174 W/m2
09:35 49.3 °F 45.0 °F 29.94 in SW 7.0 mph 12.0 mph 85 % 0.00 in 229 W/m2
09:40 49.5 °F 45.1 °F 29.93 in SW 7.0 mph 12.0 mph 85 % 0.00 in 250 W/m2
09:45 49.6 °F 45.3 °F 29.93 in SW 8.0 mph 12.0 mph 85 % 0.00 in 225 W/m2
09:46 49.6 °F 45.3 °F 29.93 in SW 8.0 mph 12.0 mph 85 % 0.00 in 220 W/m2
09:51 49.6 °F 45.3 °F 29.93 in SSW 8.0 mph 14.0 mph 85 % 0.00 in 214 W/m2
09:56 49.6 °F 45.3 °F 29.93 in SW 9.0 mph 14.0 mph 85 % 0.00 in 216 W/m2
10:01 49.8 °F 45.5 °F 29.93 in SW 9.0 mph 14.0 mph 85 % 0.00 in 220 W/m2
10:06 50.2 °F 45.8 °F 29.93 in SW 8.0 mph 13.0 mph 85 % 0.00 in 165 W/m2
10:11 50.4 °F 45.7 °F 29.93 in SW 7.0 mph 11.0 mph 84 % 0.00 in 155 W/m2
10:16 50.4 °F 45.7 °F 29.93 in SW 7.0 mph 11.0 mph 84 % 0.00 in 134 W/m2
10:21 50.4 °F 45.7 °F 29.93 in SW 7.0 mph 11.0 mph 84 % 0.00 in 142 W/m2
10:26 50.5 °F 45.9 °F 29.93 in SW 8.0 mph 12.0 mph 84 % 0.00 in 186 W/m2
10:31 50.7 °F 46.4 °F 29.93 in SW 7.0 mph 12.0 mph 85 % 0.00 in 236 W/m2
10:36 51.1 °F 46.4 °F 29.92 in SW 7.0 mph 13.0 mph 84 % 0.00 in 313 W/m2
10:41 51.4 °F 46.8 °F 29.92 in WSW 8.0 mph 13.0 mph 84 % 0.00 in 236 W/m2
10:46 51.6 °F 46.6 °F 29.92 in WSW 9.0 mph 14.0 mph 83 % 0.00 in 188 W/m2
10:51 51.6 °F 46.6 °F 29.92 in SW 9.0 mph 14.0 mph 83 % 0.00 in 120 W/m2
10:56 51.6 °F 46.9 °F 29.92 in SW 8.0 mph 14.0 mph 84 % 0.00 in 105 W/m2
11:01 51.6 °F 46.9 °F 29.93 in WSW 8.0 mph 13.0 mph 84 % 0.00 in 146 W/m2
11:06 51.6 °F 46.9 °F 29.93 in WSW 8.0 mph 13.0 mph 84 % 0.00 in 125 W/m2
11:11 52.0 °F 47.3 °F 29.92 in WSW 8.0 mph 13.0 mph 84 % 0.00 in 127 W/m2
11:16 52.2 °F 47.2 °F 29.92 in West 8.0 mph 15.0 mph 83 % 0.00 in 116 W/m2
11:21 52.3 °F 47.3 °F 29.92 in West 9.0 mph 15.0 mph 83 % 0.00 in 128 W/m2
11:26 52.5 °F 47.2 °F 29.92 in WSW 9.0 mph 16.0 mph 82 % 0.00 in 158 W/m2
11:31 52.5 °F 47.2 °F 29.92 in WSW 11.0 mph 20.0 mph 82 % 0.00 in 127 W/m2
11:36 52.5 °F 47.2 °F 29.92 in West 10.0 mph 20.0 mph 82 % 0.00 in 127 W/m2
11:41 52.9 °F 47.9 °F 29.92 in West 9.0 mph 14.0 mph 83 % 0.00 in 139 W/m2
11:46 52.9 °F 47.9 °F 29.92 in West 8.0 mph 14.0 mph 83 % 0.00 in 183 W/m2
11:51 53.1 °F 47.7 °F 29.92 in West 9.0 mph 19.0 mph 82 % 0.00 in 197 W/m2
11:56 53.1 °F 48.0 °F 29.92 in West 10.0 mph 19.0 mph 83 % 0.00 in 243 W/m2
12:01 53.2 °F 48.2 °F 29.92 in West 9.0 mph 16.0 mph 83 % 0.00 in 357 W/m2
12:07 53.6 °F 48.6 °F 29.92 in West 9.0 mph 14.0 mph 83 % 0.00 in 332 W/m2
12:12 54.0 °F 48.9 °F 29.91 in West 9.0 mph 16.0 mph 83 % 0.00 in 397 W/m2
12:17 54.3 °F 48.6 °F 29.91 in West 11.0 mph 21.0 mph 81 % 0.00 in 325 W/m2
12:20 54.5 °F 48.5 °F 29.92 in West 14.0 mph 22.0 mph 80 % 0.00 in 264 W/m2
12:25 54.7 °F 48.6 °F 29.91 in West 13.0 mph 22.0 mph 80 % 0.00 in 297 W/m2
12:30 54.9 °F 48.8 °F 29.91 in West 11.0 mph 19.0 mph 80 % 0.00 in 274 W/m2
12:35 55.0 °F 48.6 °F 29.91 in West 11.0 mph 23.0 mph 79 % 0.00 in 308 W/m2
12:40 55.0 °F 48.6 °F 29.91 in West 12.0 mph 23.0 mph 79 % 0.00 in 318 W/m2
12:45 55.0 °F 49.0 °F 29.91 in West 12.0 mph 23.0 mph 80 % 0.00 in 320 W/m2
12:51 55.4 °F 49.0 °F 29.91 in West 12.0 mph 22.0 mph 79 % 0.00 in 415 W/m2
12:55 55.8 °F 49.3 °F 29.91 in West 13.0 mph 25.0 mph 79 % 0.00 in 399 W/m2
13:01 55.8 °F 49.0 °F 29.91 in West 13.0 mph 25.0 mph 78 % 0.00 in 302 W/m2
13:06 55.6 °F 48.5 °F 29.91 in West 14.0 mph 23.0 mph 77 % 0.00 in 364 W/m2
13:11 55.6 °F 48.8 °F 29.91 in West 14.0 mph 23.0 mph 78 % 0.00 in 496 W/m2
13:16 55.8 °F 48.7 °F 29.91 in West 14.0 mph 24.0 mph 77 % 0.00 in 315 W/m2
13:21 55.6 °F 48.1 °F 29.91 in West 15.0 mph 24.0 mph 76 % 0.00 in 206 W/m2
13:26 55.4 °F 48.3 °F 29.91 in West 14.0 mph 24.0 mph 77 % 0.00 in 186 W/m2
13:31 55.2 °F 48.1 °F 29.91 in West 14.0 mph 24.0 mph 77 % 0.00 in 232 W/m2
13:36 55.2 °F 47.8 °F 29.91 in West 15.0 mph 24.0 mph 76 % 0.00 in 285 W/m2
13:41 55.2 °F 47.8 °F 29.91 in West 15.0 mph 26.0 mph 76 % 0.00 in 285 W/m2
13:46 55.2 °F 47.8 °F 29.91 in West 14.0 mph 26.0 mph 76 % 0.00 in 253 W/m2
13:51 55.2 °F 47.8 °F 29.91 in West 14.0 mph 23.0 mph 76 % 0.00 in 267 W/m2
13:56 55.0 °F 47.6 °F 29.91 in West 16.0 mph 25.0 mph 76 % 0.00 in 330 W/m2
14:01 55.2 °F 47.8 °F 29.91 in West 16.0 mph 26.0 mph 76 % 0.00 in 410 W/m2
14:06 55.4 °F 48.3 °F 29.91 in West 15.0 mph 26.0 mph 77 % 0.00 in 457 W/m2
14:11 55.4 °F 48.3 °F 29.91 in West 15.0 mph 25.0 mph 77 % 0.00 in 301 W/m2
14:15 55.4 °F 48.3 °F 29.91 in West 14.0 mph 25.0 mph 77 % 0.00 in 202 W/m2
14:20 55.2 °F 48.1 °F 29.90 in West 12.0 mph 20.0 mph 77 % 0.00 in 137 W/m2
14:25 55.2 °F 48.5 °F 29.90 in West 11.0 mph 20.0 mph 78 % 0.00 in 162 W/m2
14:30 55.0 °F 48.3 °F 29.90 in West 11.0 mph 21.0 mph 78 % 0.00 in 406 W/m2
14:35 55.0 °F 48.3 °F 29.90 in West 12.0 mph 21.0 mph 78 % 0.00 in 424 W/m2
14:40 55.8 °F 48.3 °F 29.90 in West 11.0 mph 21.0 mph 76 % 0.00 in 717 W/m2
14:45 56.5 °F 47.9 °F 29.89 in West 13.0 mph 24.0 mph 73 % 0.00 in 501 W/m2
14:50 56.8 °F 47.5 °F 29.90 in West 15.0 mph 24.0 mph 71 % 0.00 in 536 W/m2
14:55 57.0 °F 46.9 °F 29.89 in West 16.0 mph 27.0 mph 69 % 0.00 in 341 W/m2
15:00 56.8 °F 46.8 °F 29.89 in West 17.0 mph 29.0 mph 69 % 0.00 in 329 W/m2
15:05 56.7 °F 46.6 °F 29.89 in West 16.0 mph 29.0 mph 69 % 0.00 in 304 W/m2
15:10 56.8 °F 47.2 °F 29.89 in West 15.0 mph 27.0 mph 70 % 0.00 in 380 W/m2
15:15 56.8 °F 47.2 °F 29.89 in West 13.0 mph 23.0 mph 70 % 0.00 in 330 W/m2
15:20 57.0 °F 47.3 °F 29.89 in West 12.0 mph 23.0 mph 70 % 0.00 in 350 W/m2
15:25 57.4 °F 47.3 °F 29.89 in West 12.0 mph 20.0 mph 69 % 0.00 in 325 W/m2
15:30 57.0 °F 46.6 °F 29.88 in West 14.0 mph 25.0 mph 68 % 0.00 in 297 W/m2
15:35 56.7 °F 45.4 °F 29.89 in West 16.0 mph 31.0 mph 66 % 0.00 in 294 W/m2
15:40 56.5 °F 46.0 °F 29.89 in West 17.0 mph 31.0 mph 68 % 0.00 in 237 W/m2
15:45 56.1 °F 46.1 °F 29.89 in West 15.0 mph 27.0 mph 69 % 0.00 in 248 W/m2
15:50 56.1 °F 46.1 °F 29.88 in West 14.0 mph 25.0 mph 69 % 0.00 in 341 W/m2
15:55 56.3 °F 46.3 °F 29.88 in West 13.0 mph 25.0 mph 69 % 0.00 in 320 W/m2
16:00 56.5 °F 46.4 °F 29.88 in West 12.0 mph 21.0 mph 69 % 0.00 in 290 W/m2
16:05 56.1 °F 44.9 °F 29.88 in West 16.0 mph 28.0 mph 66 % 0.00 in 279 W/m2
16:10 55.9 °F 45.1 °F 29.88 in West 18.0 mph 28.0 mph 67 % 0.00 in 246 W/m2
16:15 55.9 °F 45.5 °F 29.88 in WNW 17.0 mph 25.0 mph 68 % 0.00 in 220 W/m2
16:20 55.8 °F 45.4 °F 29.88 in WNW 16.0 mph 25.0 mph 68 % 0.00 in 197 W/m2
16:25 55.6 °F 45.6 °F 29.88 in WNW 16.0 mph 27.0 mph 69 % 0.00 in 202 W/m2
16:30 55.4 °F 45.4 °F 29.88 in West 17.0 mph 27.0 mph 69 % 0.00 in 206 W/m2
16:35 55.2 °F 45.6 °F 29.88 in West 16.0 mph 26.0 mph 70 % 0.00 in 223 W/m2
16:40 55.2 °F 46.0 °F 29.88 in West 15.0 mph 26.0 mph 71 % 0.00 in 230 W/m2
16:45 55.4 °F 46.5 °F 29.88 in West 13.0 mph 26.0 mph 72 % 0.00 in 193 W/m2
16:50 55.4 °F 46.2 °F 29.88 in West 12.0 mph 26.0 mph 71 % 0.00 in 144 W/m2
16:56 55.2 °F 46.3 °F 29.88 in WNW 13.0 mph 26.0 mph 72 % 0.00 in 109 W/m2
17:01 55.0 °F 46.5 °F 29.88 in WNW 13.0 mph 23.0 mph 73 % 0.00 in 144 W/m2
17:06 54.9 °F 46.7 °F 29.88 in WNW 12.0 mph 21.0 mph 74 % 0.00 in 230 W/m2
17:11 54.7 °F 46.6 °F 29.88 in WNW 11.0 mph 21.0 mph 74 % 0.00 in 214 W/m2
17:16 54.7 °F 46.2 °F 29.88 in WNW 12.0 mph 20.0 mph 73 % 0.00 in 206 W/m2
17:21 54.5 °F 46.0 °F 29.88 in WNW 13.0 mph 20.0 mph 73 % 0.00 in 209 W/m2
17:26 54.5 °F 46.4 °F 29.87 in WNW 11.0 mph 18.0 mph 74 % 0.00 in 204 W/m2
17:31 54.5 °F 47.1 °F 29.87 in WNW 10.0 mph 18.0 mph 76 % 0.00 in 179 W/m2
17:36 54.5 °F 47.1 °F 29.87 in West 10.0 mph 18.0 mph 76 % 0.00 in 213 W/m2
17:41 54.3 °F 46.9 °F 29.88 in WNW 11.0 mph 21.0 mph 76 % 0.00 in 181 W/m2
17:46 54.1 °F 47.1 °F 29.87 in West 11.0 mph 21.0 mph 77 % 0.00 in 148 W/m2
17:51 54.1 °F 47.1 °F 29.87 in WNW 11.0 mph 19.0 mph 77 % 0.00 in 137 W/m2
17:56 54.0 °F 47.6 °F 29.88 in WNW 10.0 mph 18.0 mph 79 % 0.00 in 125 W/m2
18:01 53.6 °F 47.2 °F 29.87 in WNW 11.0 mph 19.0 mph 79 % 0.00 in 109 W/m2
18:06 53.4 °F 47.7 °F 29.87 in WNW 10.0 mph 19.0 mph 81 % 0.00 in 127 W/m2
18:11 53.2 °F 48.2 °F 29.87 in WNW 7.0 mph 15.0 mph 83 % 0.00 in 111 W/m2
18:16 52.9 °F 47.9 °F 29.87 in WNW 7.0 mph 12.0 mph 83 % 0.00 in 113 W/m2
18:21 52.9 °F 47.9 °F 29.87 in West 7.0 mph 16.0 mph 83 % 0.00 in 107 W/m2
18:26 52.9 °F 47.2 °F 29.87 in West 8.0 mph 16.0 mph 81 % 0.00 in 90 W/m2
18:31 52.9 °F 46.5 °F 29.87 in West 10.0 mph 19.0 mph 79 % 0.00 in 72 W/m2
18:36 52.9 °F 46.5 °F 29.87 in West 12.0 mph 22.0 mph 79 % 0.00 in 49 W/m2
18:41 52.7 °F 46.7 °F 29.87 in West 11.0 mph 22.0 mph 80 % 0.00 in 33 W/m2
18:46 52.5 °F 46.9 °F 29.87 in West 10.0 mph 18.0 mph 81 % 0.00 in 32 W/m2
18:51 52.2 °F 46.5 °F 29.86 in West 9.0 mph 15.0 mph 81 % 0.00 in 37 W/m2
18:56 52.0 °F 46.7 °F 29.86 in West 9.0 mph 16.0 mph 82 % 0.00 in 35 W/m2
19:01 51.6 °F 46.6 °F 29.86 in West 9.0 mph 18.0 mph 83 % 0.00 in 35 W/m2
19:06 51.6 °F 46.6 °F 29.86 in West 9.0 mph 18.0 mph 83 % 0.00 in 26 W/m2
19:11 51.4 °F 46.4 °F 29.86 in West 9.0 mph 16.0 mph 83 % 0.00 in 21 W/m2
19:16 51.4 °F 46.4 °F 29.86 in West 9.0 mph 16.0 mph 83 % 0.00 in 18 W/m2
19:21 51.4 °F 46.4 °F 29.86 in West 8.0 mph 18.0 mph 83 % 0.00 in 14 W/m2
19:26 51.3 °F 46.6 °F 29.86 in West 9.0 mph 18.0 mph 84 % 0.00 in 11 W/m2
19:31 51.1 °F 46.4 °F 29.86 in West 9.0 mph 16.0 mph 84 % 0.00 in 11 W/m2
19:36 50.9 °F 46.6 °F 29.86 in West 10.0 mph 16.0 mph 85 % 0.00 in 11 W/m2
19:41 50.7 °F 46.4 °F 29.86 in West 9.0 mph 16.0 mph 85 % 0.00 in 11 W/m2
19:46 50.7 °F 46.7 °F 29.86 in West 7.0 mph 16.0 mph 86 % 0.00 in 14 W/m2
19:51 50.5 °F 46.2 °F 29.86 in West 7.0 mph 13.0 mph 85 % 0.00 in 12 W/m2
19:56 50.5 °F 46.2 °F 29.86 in West 9.0 mph 18.0 mph 85 % 0.00 in 11 W/m2
20:01 50.5 °F 46.2 °F 29.86 in West 9.0 mph 18.0 mph 85 % 0.00 in 7 W/m2
20:06 50.5 °F 46.2 °F 29.87 in West 8.0 mph 19.0 mph 85 % 0.00 in 0 W/m2
20:11 50.5 °F 46.2 °F 29.87 in West 9.0 mph 19.0 mph 85 % 0.00 in 0 W/m2
20:17 50.5 °F 46.2 °F 29.87 in West 9.0 mph 16.0 mph 85 % 0.00 in 0 W/m2
20:22 50.5 °F 46.2 °F 29.87 in West 8.0 mph 14.0 mph 85 % 0.00 in 0 W/m2
20:27 50.5 °F 46.2 °F 29.87 in WNW 9.0 mph 20.0 mph 85 % 0.00 in 0 W/m2
20:32 50.5 °F 45.9 °F 29.88 in WNW 11.0 mph 21.0 mph 84 % 0.00 in 0 W/m2
20:37 50.5 °F 45.6 °F 29.88 in WNW 11.0 mph 21.0 mph 83 % 0.00 in 0 W/m2
20:42 50.4 °F 45.4 °F 29.88 in WNW 9.0 mph 20.0 mph 83 % 0.00 in 0 W/m2
20:47 50.2 °F 45.2 °F 29.88 in WNW 10.0 mph 19.0 mph 83 % 0.00 in 0 W/m2
20:52 50.0 °F 45.0 °F 29.88 in WNW 12.0 mph 19.0 mph 83 % 0.00 in 0 W/m2
20:57 49.8 °F 44.9 °F 29.88 in WNW 10.0 mph 19.0 mph 83 % 0.00 in 0 W/m2
21:02 49.6 °F 44.7 °F 29.88 in WNW 10.0 mph 19.0 mph 83 % 0.00 in 0 W/m2
21:07 49.5 °F 44.5 °F 29.88 in WNW 11.0 mph 21.0 mph 83 % 0.00 in 0 W/m2
21:12 49.3 °F 44.3 °F 29.89 in WNW 12.0 mph 21.0 mph 83 % 0.00 in 0 W/m2
21:17 49.3 °F 44.3 °F 29.89 in WNW 11.0 mph 19.0 mph 83 % 0.00 in 0 W/m2
21:23 48.9 °F 44.0 °F 29.89 in WNW 10.0 mph 19.0 mph 83 % 0.00 in 0 W/m2
21:28 48.9 °F 44.0 °F 29.89 in WNW 9.0 mph 15.0 mph 83 % 0.00 in 0 W/m2
21:33 48.7 °F 44.1 °F 29.89 in WNW 9.0 mph 16.0 mph 84 % 0.00 in 0 W/m2
21:38 48.6 °F 43.9 °F 29.89 in WNW 9.0 mph 19.0 mph 84 % 0.00 in 0 W/m2
21:43 48.6 °F 43.9 °F 29.89 in WNW 8.0 mph 19.0 mph 84 % 0.00 in 0 W/m2
21:48 48.6 °F 43.9 °F 29.89 in WNW 7.0 mph 12.0 mph 84 % 0.00 in 0 W/m2
21:53 48.6 °F 43.9 °F 29.89 in WNW 7.0 mph 11.0 mph 84 % 0.00 in 0 W/m2
21:58 48.6 °F 43.9 °F 29.90 in WNW 7.0 mph 13.0 mph 84 % 0.00 in 0 W/m2
22:03 48.6 °F 43.9 °F 29.89 in WNW 7.0 mph 13.0 mph 84 % 0.00 in 0 W/m2
22:08 48.4 °F 43.8 °F 29.89 in West 7.0 mph 12.0 mph 84 % 0.00 in 0 W/m2
22:13 48.2 °F 43.9 °F 29.89 in West 8.0 mph 15.0 mph 85 % 0.00 in 0 W/m2
22:18 48.2 °F 43.9 °F 29.89 in WNW 8.0 mph 15.0 mph 85 % 0.00 in 0 W/m2
22:23 48.4 °F 44.1 °F 29.89 in WNW 8.0 mph 14.0 mph 85 % 0.00 in 0 W/m2
22:28 48.4 °F 44.1 °F 29.89 in WNW 8.0 mph 14.0 mph 85 % 0.00 in 0 W/m2
22:33 48.4 °F 44.1 °F 29.90 in WNW 8.0 mph 16.0 mph 85 % 0.00 in 0 W/m2
22:38 48.4 °F 44.1 °F 29.90 in WNW 10.0 mph 20.0 mph 85 % 0.00 in 0 W/m2
22:43 48.4 °F 44.4 °F 29.90 in WNW 10.0 mph 20.0 mph 86 % 0.00 in 0 W/m2
22:48 48.4 °F 44.7 °F 29.90 in WNW 8.0 mph 16.0 mph 87 % 0.00 in 0 W/m2
22:53 48.2 °F 44.8 °F 29.90 in WNW 7.0 mph 14.0 mph 88 % 0.00 in 0 W/m2
22:58 48.0 °F 44.9 °F 29.90 in WNW 7.0 mph 14.0 mph 89 % 0.00 in 0 W/m2
23:03 47.8 °F 44.8 °F 29.90 in WNW 7.0 mph 14.0 mph 89 % 0.00 in 0 W/m2
23:08 47.7 °F 44.6 °F 29.91 in WNW 8.0 mph 15.0 mph 89 % 0.00 in 0 W/m2
23:13 47.7 °F 44.9 °F 29.90 in WNW 8.0 mph 15.0 mph 90 % 0.01 in 0 W/m2
23:18 47.5 °F 44.7 °F 29.90 in WNW 8.0 mph 13.0 mph 90 % 0.01 in 0 W/m2
23:23 47.3 °F 44.5 °F 29.91 in WNW 7.0 mph 13.0 mph 90 % 0.01 in 0 W/m2
23:28 47.3 °F 44.5 °F 29.90 in WNW 7.0 mph 13.0 mph 90 % 0.01 in 0 W/m2
23:33 47.1 °F 44.3 °F 29.90 in WNW 7.0 mph 12.0 mph 90 % 0.01 in 0 W/m2
23:38 47.1 °F 44.3 °F 29.90 in WNW 6.0 mph 12.0 mph 90 % 0.01 in 0 W/m2
23:43 46.9 °F 44.2 °F 29.90 in WNW 7.0 mph 11.0 mph 90 % 0.01 in 0 W/m2
23:48 46.8 °F 44.0 °F 29.90 in WNW 7.0 mph 11.0 mph 90 % 0.01 in 0 W/m2
23:53 46.8 °F 44.0 °F 29.90 in WNW 6.0 mph 11.0 mph 90 % 0.01 in 0 W/m2
23:58 46.6 °F 43.8 °F 29.91 in WNW 6.0 mph 11.0 mph 90 % 0.01 in 0 W/m2
Delerius-Weather
Compliments of Weather Underground - 2.25 mb

Data updates at regular intervals.